When you browse on this site, cookies collect data to enhance your experience and personalize the content and advertising you see.
Visit our Privacy Policy to learn more. By continuing to use the site, you agree to this use of cookies and data.
  • In Hungary
  • List of Countries
  • For 7 days
  • Water Temperature
  • Satellite Maps
  • Weather Map
  • News
  • Weather Widgets
  • user-avatar
    Login

    Hourly Weather Banjul

    Today, 22 March, Friday

    Time Temperature Precipitation Wind Pressure Humidity
    00:00 +25°C° 0 mm 5 mps 757 mmHg 65%
    01:00 +23°C° 0 mm 5 mps 757 mmHg 66%
    02:00 +23°C° 0 mm 4 mps 757 mmHg 68%
    03:00 +23°C° 0 mm 4 mps 757 mmHg 69%
    04:00 +23°C° 0 mm 4 mps 757 mmHg 70%
    05:00 +22°C° 0 mm 4 mps 757 mmHg 72%
    06:00 +23°C° 0 mm 4 mps 757 mmHg 70%
    07:00 +23°C° 0 mm 5 mps 758 mmHg 68%
    08:00 +25°C° 0 mm 5 mps 758 mmHg 65%
    09:00 +27°C° 0 mm 5 mps 758 mmHg 56%
    10:00 +29°C° 0 mm 5 mps 759 mmHg 47%
    11:00 +32°C° 0 mm 5 mps 759 mmHg 38%
    12:00 +32°C° 0 mm 5 mps 758 mmHg 37%
    13:00 +33°C° 0 mm 6 mps 758 mmHg 36%
    14:00 +34°C° 0 mm 6 mps 757 mmHg 35%
    15:00 +32°C° 0 mm 7 mps 757 mmHg 40%
    16:00 +30°C° 0 mm 7 mps 757 mmHg 45%
    17:00 +29°C° 0 mm 7 mps 757 mmHg 50%
    18:00 +28°C° 0 mm 7 mps 758 mmHg 53%
    19:00 +27°C° 0 mm 7 mps 758 mmHg 55%
    20:00 +27°C° 0 mm 7 mps 759 mmHg 58%
    21:00 +26°C° 0 mm 6 mps 759 mmHg 59%
    22:00 +26°C° 0 mm 6 mps 759 mmHg 61%
    23:00 +24°C° 0 mm 6 mps 760 mmHg 63%

    Tomorrow, 23 March, Saturday

    Time Temperature Precipitation Wind Pressure Humidity
    00:00 +24°C° 0 mm 6 mps 759 mmHg 63%
    01:00 +24°C° 0 mm 6 mps 759 mmHg 64%
    02:00 +24°C° 0 mm 6 mps 758 mmHg 64%
    03:00 +23°C° 0 mm 6 mps 758 mmHg 67%
    04:00 +23°C° 0 mm 6 mps 758 mmHg 69%
    05:00 +22°C° 0 mm 6 mps 758 mmHg 71%
    06:00 +23°C° 0 mm 6 mps 758 mmHg 69%
    07:00 +23°C° 0 mm 5 mps 759 mmHg 66%
    08:00 +25°C° 0 mm 5 mps 759 mmHg 63%
    09:00 +27°C° 0 mm 5 mps 759 mmHg 55%
    10:00 +29°C° 0 mm 4 mps 760 mmHg 46%
    11:00 +30°C° 0 mm 4 mps 760 mmHg 37%
    12:00 +32°C° 0 mm 4 mps 759 mmHg 36%
    13:00 +33°C° 0 mm 5 mps 758 mmHg 34%
    14:00 +34°C° 0 mm 6 mps 758 mmHg 33%
    15:00 +32°C° 0 mm 6 mps 757 mmHg 40%
    16:00 +30°C° 0 mm 7 mps 757 mmHg 47%
    17:00 +28°C° 0 mm 7 mps 756 mmHg 54%
    18:00 +27°C° 0 mm 7 mps 757 mmHg 56%
    19:00 +27°C° 0 mm 6 mps 757 mmHg 57%
    20:00 +26°C° 0 mm 6 mps 758 mmHg 59%
    21:00 +24°C° 0 mm 6 mps 758 mmHg 60%
    22:00 +25°C° 0 mm 5 mps 758 mmHg 62%
    23:00 +23°C° 0 mm 5 mps 759 mmHg 64%

    Day after tomorrow, 24 March, Sunday

    Time Temperature Precipitation Wind Pressure Humidity
    00:00 +23°C° 0 mm 5 mps 758 mmHg 65%
    01:00 +22°C° 0 mm 5 mps 758 mmHg 67%
    02:00 +22°C° 0 mm 5 mps 757 mmHg 69%
    03:00 +21°C° 0 mm 5 mps 757 mmHg 70%
    04:00 +21°C° 0 mm 5 mps 757 mmHg 71%
    05:00 +21°C° 0 mm 5 mps 757 mmHg 73%
    06:00 +21°C° 0 mm 4 mps 758 mmHg 69%
    07:00 +22°C° 0 mm 4 mps 758 mmHg 66%
    08:00 +22°C° 0 mm 4 mps 759 mmHg 62%
    09:00 +25°C° 0 mm 4 mps 759 mmHg 53%
    10:00 +27°C° 0 mm 3 mps 759 mmHg 45%
    11:00 +29°C° 0 mm 3 mps 759 mmHg 36%
    12:00 +30°C° 0 mm 4 mps 758 mmHg 36%
    13:00 +32°C° 0 mm 5 mps 758 mmHg 35%
    14:00 +32°C° 0 mm 6 mps 757 mmHg 35%
    15:00 +30°C° 0 mm 6 mps 757 mmHg 43%
    16:00 +28°C° 0 mm 6 mps 756 mmHg 50%
    17:00 +27°C° 0 mm 7 mps 756 mmHg 58%
    18:00 +26°C° 0 mm 6 mps 757 mmHg 61%
    19:00 +24°C° 0 mm 6 mps 757 mmHg 65%
    20:00 +23°C° 0 mm 5 mps 758 mmHg 68%
    21:00 +23°C° 0 mm 5 mps 758 mmHg 69%
    22:00 +23°C° 0 mm 5 mps 758 mmHg 69%
    23:00 +23°C° 0 mm 6 mps 759 mmHg 69%

    25 March, Monday

    Time Temperature Precipitation Wind Pressure Humidity
    00:00 +22°C° 0 mm 6 mps 758 mmHg 71%
    01:00 +22°C° 0 mm 5 mps 757 mmHg 73%
    02:00 +22°C° 0 mm 5 mps 757 mmHg 75%
    03:00 +21°C° 0 mm 5 mps 757 mmHg 76%
    04:00 +21°C° 0 mm 5 mps 757 mmHg 77%
    05:00 +21°C° 0 mm 5 mps 757 mmHg 78%
    06:00 +21°C° 0 mm 5 mps 757 mmHg 75%
    07:00 +22°C° 0 mm 5 mps 758 mmHg 73%
    08:00 +22°C° 0 mm 5 mps 759 mmHg 70%
    09:00 +25°C° 0 mm 5 mps 759 mmHg 62%
    10:00 +27°C° 0 mm 5 mps 759 mmHg 53%
    11:00 +29°C° 0 mm 4 mps 759 mmHg 45%
    12:00 +29°C° 0 mm 5 mps 758 mmHg 44%
    13:00 +30°C° 0 mm 6 mps 758 mmHg 42%
    14:00 +30°C° 0 mm 6 mps 757 mmHg 41%
    15:00 +29°C° 0 mm 6 mps 757 mmHg 47%
    16:00 +28°C° 0 mm 7 mps 757 mmHg 52%
    17:00 +26°C° 0 mm 7 mps 757 mmHg 57%
    18:00 +24°C° 0 mm 7 mps 757 mmHg 60%
    19:00 +24°C° 0 mm 6 mps 758 mmHg 62%
    20:00 +23°C° 0 mm 6 mps 758 mmHg 65%
    21:00 +23°C° 0 mm 6 mps 759 mmHg 65%
    22:00 +23°C° 0 mm 6 mps 759 mmHg 65%
    23:00 +22°C° 0 mm 6 mps 759 mmHg 66%

    26 March, Tuesday

    Time Temperature Precipitation Wind Pressure Humidity
    00:00 +22°C° 0 mm 6 mps 758 mmHg 66%
    01:00 +22°C° 0 mm 6 mps 758 mmHg 67%
    02:00 +21°C° 0 mm 6 mps 757 mmHg 68%
    03:00 +21°C° 0 mm 5 mps 758 mmHg 69%
    04:00 +21°C° 0 mm 5 mps 758 mmHg 70%
    05:00 +20°C° 0 mm 5 mps 758 mmHg 71%
    06:00 +21°C° 0 mm 5 mps 759 mmHg 69%
    07:00 +21°C° 0 mm 5 mps 759 mmHg 66%
    08:00 +22°C° 0 mm 4 mps 760 mmHg 64%
    09:00 +25°C° 0 mm 4 mps 760 mmHg 55%
    10:00 +27°C° 0 mm 4 mps 760 mmHg 46%
    11:00 +29°C° 0 mm 4 mps 759 mmHg 37%
    12:00 +30°C° 0 mm 4 mps 758 mmHg 35%
    13:00 +32°C° 0 mm 5 mps 758 mmHg 32%
    14:00 +33°C° 0 mm 5 mps 757 mmHg 30%
    15:00 +32°C° 0 mm 6 mps 757 mmHg 38%
    16:00 +29°C° 0 mm 6 mps 757 mmHg 46%
    17:00 +27°C° 0 mm 7 mps 757 mmHg 55%
    18:00 +27°C° 0 mm 7 mps 757 mmHg 56%
    19:00 +26°C° 0 mm 6 mps 758 mmHg 58%
    20:00 +24°C° 0 mm 6 mps 758 mmHg 59%
    21:00 +24°C° 0 mm 6 mps 759 mmHg 60%
    22:00 +23°C° 0 mm 6 mps 759 mmHg 61%
    23:00 +23°C° 0 mm 6 mps 759 mmHg 62%

    27 March, Wednesday

    Time Temperature Precipitation Wind Pressure Humidity
    00:00 +23°C° 0 mm 6 mps 759 mmHg 65%
    01:00 +22°C° 0 mm 6 mps 758 mmHg 68%
    02:00 +22°C° 0 mm 5 mps 758 mmHg 71%
    03:00 +21°C° 0 mm 5 mps 758 mmHg 71%
    04:00 +21°C° 0 mm 5 mps 758 mmHg 71%
    05:00 +21°C° 0 mm 5 mps 758 mmHg 71%
    06:00 +21°C° 0 mm 5 mps 759 mmHg 67%
    07:00 +22°C° 0 mm 5 mps 759 mmHg 63%
    08:00 +23°C° 0 mm 5 mps 760 mmHg 59%
    09:00 +26°C° 0 mm 5 mps 760 mmHg 49%
    10:00 +28°C° 0 mm 4 mps 760 mmHg 40%
    11:00 +32°C° 0 mm 4 mps 759 mmHg 30%
    12:00 +33°C° 0 mm 5 mps 759 mmHg 29%
    13:00 +34°C° 0 mm 5 mps 758 mmHg 28%
    14:00 +35°C° 0 mm 5 mps 757 mmHg 27%
    15:00 +33°C° 0 mm 6 mps 757 mmHg 34%
    16:00 +30°C° 0 mm 6 mps 757 mmHg 42%
    17:00 +29°C° 0 mm 7 mps 757 mmHg 50%
    18:00 +28°C° 0 mm 7 mps 757 mmHg 52%
    19:00 +27°C° 0 mm 7 mps 758 mmHg 54%
    20:00 +26°C° 0 mm 7 mps 758 mmHg 56%
    21:00 +26°C° 0 mm 6 mps 759 mmHg 56%
    22:00 +24°C° 0 mm 6 mps 759 mmHg 57%
    23:00 +24°C° 0 mm 6 mps 759 mmHg 57%
    Show more